Weather in Bely Yar

Russia / Omsk Oblast     57°35′18″N   72°23′04″E
temp.,
°C
wind,
m/s
gust,
m/s
humid.,
%
clouds,
%
prec.,
mm/h
press.,
hPa
HPBL,
m
7 may, fri
fri700:00+8w39635 0.0 1008290
03:00+6wsw39705 0.0 1010240
06:00+6w411664 0.0 1011757
09:00+9w69525 0.0 10131511
12:00+12w610352 0.0 10141664
15:00+15wnw611260 0.0 10151824
18:00+17w512310 0.0 10151801
21:00+12wsw38495 0.0 1016182
8 may, sat
sat800:00+12wsw4145593 0.0 1017406
03:00+10wsw312665 0.0 1018278
06:00+10wsw312675 0.0 1018306
09:00+16w59475 0.0 1018583
12:00+21wnw48375 0.0 10182186
15:00+23wnw47295 0.0 10172807
18:00+22n453360 0.0 10171990
21:00+15ne2363100 0.0 101847
9 may, sun
sun900:00+13e127281 0.0 101812
03:00+13e257295 0.0 1019116
06:00+11ene376762 0.0 1020211
09:00+15e354523 0.0 1020464
12:00+19ene343781 0.0 10201214
15:00+21ene343422 0.0 10191978
18:00+20ene443597 0.0 10192203
21:00+14ene265828 0.0 1020111
10 may, mon
mon1000:00+11e29655 0.0 1020215
03:00+9ene28691 0.0 1020189
06:00+9e38667 0.0 1021222
09:00+13ene464645 0.0 1022857
12:00+16ne46375 0.0 10211890
15:00+17ne5535100 0.0 10202447
18:00+14nne454399 0.0 10201655
21:00+12nne385299 0.0 1021404
11 may, tue
tue1100:00+10ne2561100 0.0 1021191
03:00+9ne256169 0.0 1021195
06:00+6ene25695 0.0 1022126
09:00+12ne25425 0.0 10221700
12:00+15ne24357 0.0 10222014
15:00+17nne23315 0.0 10212239
18:00+17nne22315 0.0 10212219
21:00+12ne11505 0.0 102110